Weather History for Ciudad Obregon, Mexico

Change the Weather History Date:

Friday, October 5, 2012

  Actual Average Record
Temperature  
Mean Temperature 86 °F -  
Max Temperature 105 °F 94 °F 107 °F (1999)
Min Temperature 68 °F 73 °F 67 °F (2013)
Cooling Degree Days 22    
Growing Degree Days 36 (Base 50)    
Moisture  
Dew Point 57 °F    
Average Humidity 40    
Maximum Humidity 88    
Minimum Humidity 7    
Precipitation  
Precipitation 0.00 in - - ()
Sea Level Pressure  
Sea Level Pressure 29.87 in    
Wind  
Wind Speed 4 mph ()    
Max Wind Speed 18 mph    
Max Gust Speed -    
Visibility 10.1 miles    
Events      
Averages and records for this station are not official NWS values.
T = Trace of Precipitation, MM = Missing Value Source: Averaged Metar Reports

Daily Weather History Graph

Daily Weather History Graph

Search for Another Location

Airport:

Trip Planner

Search our weather history database for the weather conditions in past years. The results will help you decide how hot, cold, wet, or windy it might be!

Date:

Astronomy

Oct. 05, 2012 Rise Set
Actual Time 6:14 AM MST 6:00 PM MST
Civil Twilight 5:50 AM MST 6:23 PM MST
Nautical Twilight 5:23 AM MST 6:50 PM MST
Astronomical Twilight 4:56 AM MST 7:17 PM MST
Moon 9:50 PM MST (10/5) 11:00 AM MST (10/5)
Length of Visible Light 12h 32m
Length of Day
11h 46m
Waning Gibbous, 73% of the Moon is Illuminated
Oct 5
Waning Gibbous
Oct 8
Last Quarter
Oct 15
New
Oct 21
First Quarter
Oct 29
Full

Hourly Weather History & Observations

Time (MST) Temp. Heat Index Dew Point Humidity Pressure Visibility Wind Dir Wind Speed Gust Speed Precip Events Conditions
3:53 AM 71.6 °F - 66.2 °F 83% 29.86 in 8.0 mi NNE 3.5 mph - N/A   Clear
4:41 AM 69.8 °F - 66.2 °F 88% 29.87 in 8.0 mi Calm Calm - N/A   Clear
5:43 AM 69.8 °F - 64.4 °F 83% 29.89 in 10.0 mi Calm Calm - N/A   Clear
6:44 AM 69.8 °F - 64.4 °F 83% 29.90 in 10.0 mi SE 3.5 mph - N/A   Clear
7:44 AM 80.6 °F 83.9 °F 69.8 °F 70% 29.92 in 10.0 mi ESE 2.3 mph - N/A   Clear
7:50 AM 79 °F - 76 °F 86% 29.94 in 12 mi ESE 4.5 mph - -  
8:44 AM 86.0 °F 89.4 °F 68.0 °F 55% 29.93 in 10.0 mi East 4.6 mph - N/A   Clear
9:42 AM 91.4 °F 94.0 °F 66.2 °F 43% 29.93 in 10.0 mi Calm Calm - N/A   Clear
10:45 AM 95.0 °F 95.2 °F 60.8 °F 32% 29.92 in 10.0 mi SE 3.5 mph - N/A   Clear
10:50 AM 96 °F - 60 °F 21% 29.94 in 12 mi North 4.5 mph - -  
11:45 AM 98.6 °F 96.4 °F 53.6 °F 22% 29.89 in 10.0 mi South 2.3 mph - N/A   Clear
12:47 PM 102.2 °F - 39.2 °F 11% 29.86 in 10.0 mi SSW 2.3 mph - N/A   Clear
1:45 PM 104.0 °F - 41.0 °F 12% 29.83 in 10.0 mi NW 11.5 mph - N/A   Clear
1:50 PM 104 °F - 45 °F 7% 29.86 in 12 mi WSW 6.7 mph - -  
2:46 PM 102.2 °F - 39.2 °F 11% 29.81 in 10.0 mi West 15.0 mph - N/A   Clear
3:48 PM 102.2 °F - 39.2 °F 11% 29.80 in 10.0 mi WSW 3.5 mph - N/A   Clear
4:43 PM 100.4 °F - 46.4 °F 16% 29.80 in 10.0 mi WNW 10.4 mph - N/A   Clear
4:50 PM 100 °F - 57 °F 15% 29.82 in 12 mi West 17.9 mph - -  
5:47 PM 95.0 °F 92.7 °F 53.6 °F 25% 29.81 in 10.0 mi West 6.9 mph - N/A   Clear
6:47 PM 87.8 °F 86.1 °F 55.4 °F 33% 29.82 in 8.0 mi West 3.5 mph - N/A   Clear
7:42 PM 82.4 °F 82.0 °F 57.2 °F 42% 29.83 in 10.0 mi North 3.5 mph - N/A   Clear